Location: Sigmaringen
(48.0900°N, 9.2120°E)
Time: 10:04:58
(UTC+01:00)

ISS - Pass Details

Date: 04 January 2018
Orbit: 402 x 407 km, 51.6° (Epoch: 21 January)

Event Time Altitude Azimuth Distance (km) Brightness Sun altitude
Exits shadow 06:53:14 23° 296° (WNW) 920 -2.7 -12.7°
Maximum altitude 06:54:54 43° 356° (N) 586 -3.2 -12.4°
Drops below altitude 10° 06:58:05 10° 70° (ENE) 1,472 -0.2 -11.9°
Sets 07:00:14 0° 78° (ENE) 2,334 1.1 -11.6°
